| time (UTC) | temp F | wind direction | speed MPH | gust MPH | rain 1hr in | rain 24hr in | rain mn in | humidity % | barometer mb |
| 20260505094550 | 39 | 227 | 1.0 | 2.0 | 0.00 | 0.17 | 0.02 | 95 | 1003.0 |
| 20260505093059 | 39 | 221 | 1.0 | 3.0 | 0.00 | 0.17 | 0.02 | 95 | 1003.0 |
| 20260505091526 | 39 | 222 | 1.0 | 4.0 | 0.00 | 0.17 | 0.02 | 96 | 1003.1 |
| 20260505090053 | 40 | 225 | 1.0 | 3.0 | 0.00 | 0.17 | 0.02 | 96 | 1003.3 |
| 20260505084607 | 39 | 231 | 0.0 | 1.0 | 0.00 | 0.17 | 0.02 | 95 | 1003.2 |
| 20260505083015 | 39 | 34 | 0.0 | 1.0 | 0.01 | 0.17 | 0.02 | 95 | 1003.5 |
| 20260505081545 | 40 | 33 | 0.0 | 1.0 | 0.01 | 0.17 | 0.02 | 95 | 1003.9 |
| 20260505080025 | 40 | 17 | 1.0 | 2.0 | 0.01 | 0.17 | 0.02 | 95 | 1004.1 |
| 20260505074542 | 40 | 25 | 1.0 | 3.0 | 0.01 | 0.17 | 0.02 | 95 | 1004.4 |
| 20260505073002 | 40 | 30 | 1.0 | 2.0 | 0.00 | 0.16 | 0.01 | 95 | 1004.6 |
| 20260505071535 | 40 | 25 | 1.0 | 3.0 | 0.00 | 0.16 | 0.01 | 95 | 1004.6 |
| 20260505070105 | 40 | 34 | 2.0 | 4.0 | 0.01 | 0.16 | 0.01 | 95 | 1004.5 |
| 20260505064538 | 40 | 30 | 0.0 | 3.0 | 0.01 | 0.16 | 0.01 | 95 | 1004.7 |
| 20260505063102 | 40 | 28 | 0.0 | 2.0 | 0.02 | 0.16 | 0.01 | 95 | 1004.6 |
| 20260505061558 | 40 | 20 | 0.0 | 2.0 | 0.02 | 0.16 | 0.01 | 94 | 1004.3 |
| 20260505054528 | 40 | 89 | 0.0 | 2.0 | 0.01 | 0.15 | 0.15 | 94 | 1004.5 |
| 20260505053046 | 40 | 46 | 0.0 | 1.0 | 0.00 | 0.14 | 0.14 | 94 | 1004.3 |
| 20260505051523 | 39 | 25 | 0.0 | 1.0 | 0.00 | 0.14 | 0.14 | 94 | 1004.3 |
| 20260505041502 | 39 | 25 | 0.0 | 1.0 | 0.02 | 0.14 | 0.14 | 93 | 1004.0 |
| 20260505040055 | 40 | 25 | 0.0 | 2.0 | 0.04 | 0.14 | 0.14 | 92 | 1003.6 |
| 20260505034504 | 41 | 12 | 1.0 | 2.0 | 0.09 | 0.14 | 0.14 | 92 | 1003.1 |
| 20260505033041 | 41 | 77 | 0.0 | 2.0 | 0.10 | 0.14 | 0.14 | 91 | 1003.3 |
| 20260505031507 | 41 | 17 | 0.0 | 2.0 | 0.09 | 0.12 | 0.12 | 91 | 1003.5 |
| 20260505024511 | 42 | 14 | 0.0 | 1.0 | 0.03 | 0.06 | 0.06 | 90 | 1003.1 |
| 20260505023029 | 42 | 14 | 0.0 | 1.0 | 0.03 | 0.04 | 0.04 | 89 | 1002.9 |
| 20260505021544 | 42 | 13 | 0.0 | 0.0 | 0.03 | 0.03 | 0.03 | 89 | 1002.7 |
| 20260505020056 | 42 | 13 | 0.0 | 0.0 | 0.03 | 0.03 | 0.03 | 88 | 1002.5 |
| 20260505014515 | 43 | 13 | 0.0 | 2.0 | 0.03 | 0.03 | 0.03 | 86 | 1002.4 |
| 20260505013028 | 44 | 13 | 0.0 | 4.0 | 0.03 | 0.03 | 0.03 | 82 | 1002.2 |
| 20260505011546 | 47 | 75 | 1.0 | 3.0 | 0.01 | 0.01 | 0.01 | 70 | 1002.4 |
| 20260505010108 | 49 | 56 | 0.0 | 3.0 | 0.00 | 0.00 | 0.00 | 60 | 1002.0 |
| 20260505004518 | 50 | 98 | 0.0 | 4.0 | 0.00 | 0.00 | 0.00 | 53 | 1001.6 |
| 20260505003034 | 50 | 110 | 1.0 | 5.0 | 0.00 | 0.00 | 0.00 | 53 | 1001.1 |
| 20260505001555 | 51 | 179 | 1.0 | 9.0 | 0.00 | 0.00 | 0.00 | 52 | 1000.9 |
| 20260505000008 | 53 | 4 | 2.0 | 13.0 | 0.00 | 0.00 | 0.00 | 47 | 1000.9 |
| 20260504233018 | 57 | 134 | 1.0 | 6.0 | 0.00 | 0.00 | 0.00 | 36 | 1000.1 |
| 20260504231539 | 56 | 68 | 2.0 | 7.0 | 0.00 | 0.00 | 0.00 | 37 | 1000.1 |
| 20260504230059 | 57 | 187 | 1.0 | 6.0 | 0.00 | 0.00 | 0.00 | 38 | 999.8 |
| 20260504224518 | 57 | 171 | 2.0 | 7.0 | 0.00 | 0.00 | 0.00 | 37 | 999.7 |
| 20260504223035 | 57 | 168 | 0.0 | 3.0 | 0.00 | 0.00 | 0.00 | 37 | 999.8 |
| 20260504214511 | 60 | 42 | 4.0 | 11.0 | 0.00 | 0.00 | 0.00 | 33 | 999.5 |
| 20260504213045 | 62 | 158 | 1.0 | 11.0 | 0.00 | 0.00 | 0.00 | 29 | 999.3 |
| 20260504211553 | 64 | 33 | 2.0 | 9.0 | 0.00 | 0.00 | 0.00 | 26 | 999.4 |
| 20260504210010 | 64 | 107 | 2.0 | 9.0 | 0.00 | 0.00 | 0.00 | 28 | 999.4 |
| 20260504204539 | 63 | 10 | 1.0 | 10.0 | 0.00 | 0.00 | 0.00 | 29 | 999.5 |
| 20260504203056 | 64 | 204 | 2.0 | 8.0 | 0.00 | 0.00 | 0.00 | 27 | 999.6 |
| 20260504201545 | 61 | 342 | 3.0 | 8.0 | 0.00 | 0.00 | 0.00 | 31 | 999.6 |
| 20260504200007 | 62 | 115 | 3.0 | 9.0 | 0.00 | 0.00 | 0.00 | 30 | 999.6 |
| 20260504194525 | 63 | 355 | 0.0 | 3.0 | 0.00 | 0.00 | 0.00 | 26 | 999.9 |
| 20260504193058 | 63 | 89 | 1.0 | 8.0 | 0.00 | 0.00 | 0.00 | 24 | 999.5 |
| 20260504191505 | 0 | 0.0 | 0.0 | 0.00 | 0.00 | 0.00 | 999.6 | ||
| 20260504190029 | 0 | 0.0 | 0.0 | 0.00 | 0.00 | 0.00 | 999.6 | ||
| 20260504184523 | 67 | 169 | 3.0 | 7.0 | 0.00 | 0.00 | 0.00 | 22 | 1000.0 |
| 20260504183054 | 65 | 93 | 2.0 | 6.0 | 0.00 | 0.00 | 0.00 | 22 | 1000.4 |